| time (UTC) | temp C | wind direction | speed KPH | gust KPH | rain 1hr cm | rain 24hr cm | rain mn cm | humidity % | barometer mb |
| 20260502170318 | 20 | 10 | 4.8 | 19.3 | 0.00 | 2.51 | 0.00 | 70 | 1021.0 |
| 20260502164312 | 20 | 13 | 8.0 | 17.7 | 0.00 | 2.51 | 0.00 | 73 | 1021.3 |
| 20260502163811 | 20 | 5 | 6.4 | 17.7 | 0.00 | 2.51 | 0.00 | 73 | 1021.3 |
| 20260502163311 | 20 | 15 | 4.8 | 14.5 | 0.00 | 2.51 | 0.00 | 75 | 1021.3 |
| 20260502162811 | 19 | 300 | 4.8 | 16.1 | 0.00 | 2.51 | 0.00 | 76 | 1021.3 |
| 20260502162312 | 19 | 350 | 6.4 | 16.1 | 0.00 | 2.54 | 0.00 | 74 | 1021.1 |
| 20260502161812 | 19 | 351 | 6.4 | 17.7 | 0.00 | 2.57 | 0.00 | 76 | 1021.2 |
| 20260502161539 | 19 | 338 | 6.4 | 17.7 | 0.00 | 2.59 | 0.00 | 75 | 1021.2 |
| 20260502160809 | 19 | 342 | 6.4 | 14.5 | 0.00 | 2.64 | 0.00 | 78 | 1021.2 |
| 20260502160536 | 18 | 16 | 6.4 | 16.1 | 0.00 | 2.67 | 0.00 | 77 | 1021.2 |
| 20260502152300 | 17 | 17 | 11.3 | 20.9 | 0.00 | 2.87 | 0.00 | 80 | 1020.8 |
| 20260502151802 | 17 | 346 | 11.3 | 20.9 | 0.00 | 2.87 | 0.00 | 80 | 1020.7 |
| 20260502151259 | 17 | 9 | 9.7 | 20.9 | 0.00 | 2.87 | 0.00 | 79 | 1020.8 |
| 20260502150759 | 17 | 355 | 9.7 | 19.3 | 0.00 | 2.87 | 0.00 | 82 | 1020.8 |
| 20260502150258 | 17 | 10 | 8.0 | 19.3 | 0.00 | 2.87 | 0.00 | 81 | 1020.9 |
| 20260502130640 | 13 | 332 | 3.2 | 12.9 | 0.00 | 3.45 | 0.00 | 93 | 1019.9 |
| 20260502130405 | 13 | 288 | 3.2 | 12.9 | 0.00 | 3.45 | 0.00 | 94 | 1019.8 |
| 20260502123604 | 12 | 293 | 1.6 | 4.8 | 0.00 | 3.45 | 0.00 | 96 | 1019.2 |
| 20260502123058 | 12 | 275 | 1.6 | 8.0 | 0.00 | 3.45 | 0.00 | 96 | 1019.1 |
| 20260502122551 | 11 | 355 | 1.6 | 8.0 | 0.00 | 3.45 | 0.00 | 96 | 1019.0 |
| 20260502122046 | 11 | 300 | 1.6 | 6.4 | 0.00 | 3.45 | 0.00 | 96 | 1019.0 |
| 20260502121540 | 11 | 304 | 1.6 | 6.4 | 0.00 | 3.45 | 0.00 | 96 | 1018.8 |
| 20260502121036 | 11 | 296 | 0.0 | 6.4 | 0.00 | 3.45 | 0.00 | 96 | 1018.8 |
| 20260502121031 | 11 | 336 | 0.0 | 4.8 | 0.00 | 3.45 | 0.00 | 96 | 1018.9 |
| 20260502115747 | 11 | 336 | 0.0 | 0.0 | 0.00 | 3.45 | 0.00 | 96 | 1018.8 |
| 20260502115240 | 11 | 336 | 0.0 | 0.0 | 0.00 | 3.45 | 0.00 | 96 | 1018.8 |
| 20260502114504 | 11 | 336 | 0.0 | 0.0 | 0.00 | 3.45 | 0.00 | 96 | 1018.7 |
| 20260502113958 | 11 | 336 | 0.0 | 0.0 | 0.00 | 3.45 | 0.00 | 96 | 1018.6 |
| 20260502113452 | 11 | 336 | 0.0 | 3.2 | 0.00 | 3.45 | 0.00 | 96 | 1018.7 |
| 20260502112946 | 11 | 338 | 1.6 | 9.7 | 0.00 | 3.45 | 0.00 | 96 | 1018.7 |
| 20260502112439 | 11 | 338 | 1.6 | 9.7 | 0.00 | 3.45 | 0.00 | 96 | 1018.5 |
| 20260502111934 | 11 | 11 | 1.6 | 9.7 | 0.00 | 3.45 | 0.00 | 96 | 1018.5 |
| 20260502111658 | 11 | 349 | 3.2 | 6.4 | 0.00 | 3.45 | 0.00 | 96 | 1018.4 |
| 20260502110922 | 11 | 330 | 3.2 | 11.3 | 0.00 | 3.45 | 0.00 | 95 | 1018.3 |
| 20260502110416 | 11 | 9 | 3.2 | 11.3 | 0.00 | 3.45 | 0.00 | 95 | 1018.3 |
| 20260502105909 | 11 | 284 | 1.6 | 9.7 | 0.00 | 3.45 | 0.00 | 95 | 1018.1 |
| 20260502105404 | 11 | 272 | 1.6 | 9.7 | 0.00 | 3.45 | 0.00 | 95 | 1018.1 |
| 20260502104857 | 11 | 323 | 1.6 | 8.0 | 0.00 | 3.45 | 0.00 | 95 | 1018.0 |
| 20260502104624 | 11 | 350 | 1.6 | 8.0 | 0.00 | 3.45 | 0.00 | 94 | 1018.0 |
| 20260502103846 | 12 | 346 | 1.6 | 6.4 | 0.00 | 3.45 | 0.00 | 94 | 1017.9 |
| 20260502103339 | 12 | 348 | 1.6 | 8.0 | 0.00 | 3.45 | 0.00 | 94 | 1018.0 |
| 20260502103106 | 12 | 350 | 1.6 | 9.7 | 0.00 | 3.45 | 0.00 | 94 | 1017.8 |
| 20260502102328 | 12 | 355 | 1.6 | 9.7 | 0.00 | 3.45 | 0.00 | 94 | 1017.8 |
| 20260502101821 | 12 | 344 | 1.6 | 8.0 | 0.00 | 3.45 | 0.00 | 94 | 1017.8 |
| 20260502101316 | 12 | 341 | 3.2 | 8.0 | 0.00 | 3.45 | 0.00 | 94 | 1017.7 |
| 20260502100810 | 12 | 0 | 3.2 | 8.0 | 0.00 | 3.45 | 0.00 | 94 | 1017.6 |
| 20260502100303 | 12 | 355 | 1.6 | 6.4 | 0.00 | 3.45 | 0.00 | 94 | 1017.5 |
| 20260502091204 | 12 | 0 | 6.4 | 12.9 | 0.00 | 3.45 | 0.00 | 93 | 1016.2 |
| 20260502090928 | 12 | 350 | 4.8 | 12.9 | 0.00 | 3.45 | 0.00 | 93 | 1016.2 |
| 20260502090152 | 12 | 0 | 4.8 | 8.0 | 0.00 | 3.45 | 0.00 | 93 | 1016.1 |
| 20260502071137 | 12 | 355 | 4.8 | 9.7 | 0.00 | 3.45 | 0.00 | 95 | 1016.0 |
| 20260502070637 | 12 | 5 | 4.8 | 9.7 | 0.00 | 3.45 | 0.00 | 95 | 1016.1 |
| 20260502070408 | 12 | 5 | 4.8 | 9.7 | 0.00 | 3.45 | 0.00 | 95 | 1016.1 |
| 20260502065636 | 12 | 36 | 4.8 | 9.7 | 0.00 | 3.45 | 0.00 | 94 | 1016.2 |
| 20260502065138 | 13 | 351 | 6.4 | 12.9 | 0.00 | 3.45 | 0.00 | 94 | 1016.3 |
| 20260502064637 | 13 | 5 | 8.0 | 17.7 | 0.00 | 3.45 | 0.00 | 94 | 1016.2 |
| 20260502064137 | 13 | 5 | 8.0 | 17.7 | 0.00 | 3.45 | 0.00 | 94 | 1016.1 |
| 20260502063637 | 13 | 351 | 8.0 | 17.7 | 0.00 | 3.45 | 0.00 | 94 | 1016.1 |
| 20260502063138 | 13 | 0 | 8.0 | 17.7 | 0.00 | 3.45 | 0.00 | 94 | 1016.1 |
| 20260502062637 | 13 | 5 | 8.0 | 16.1 | 0.00 | 3.45 | 0.00 | 94 | 1016.2 |
| 20260502062133 | 13 | 348 | 9.7 | 17.7 | 0.00 | 3.45 | 0.00 | 94 | 1016.1 |
| 20260502061633 | 13 | 20 | 11.3 | 25.7 | 0.00 | 3.45 | 0.00 | 94 | 1016.0 |
| 20260502061132 | 13 | 344 | 11.3 | 25.7 | 0.00 | 3.45 | 0.00 | 93 | 1016.0 |
| 20260502060632 | 13 | 5 | 11.3 | 20.9 | 0.00 | 3.45 | 0.00 | 94 | 1016.1 |
| 20260502060133 | 13 | 355 | 11.3 | 20.9 | 0.00 | 3.45 | 0.00 | 94 | 1016.0 |
| 20260502055632 | 13 | 355 | 11.3 | 20.9 | 0.00 | 3.45 | 0.00 | 94 | 1016.1 |
| 20260502055134 | 13 | 355 | 11.3 | 25.7 | 0.00 | 3.45 | 0.00 | 94 | 1015.9 |
| 20260502054634 | 13 | 0 | 11.3 | 29.0 | 0.00 | 3.45 | 0.00 | 94 | 1016.1 |
| 20260502054134 | 13 | 348 | 12.9 | 29.0 | 0.00 | 3.45 | 0.00 | 94 | 1016.0 |
| 20260502053906 | 13 | 5 | 11.3 | 22.5 | 0.00 | 3.45 | 0.00 | 95 | 1016.1 |
| 20260502053134 | 13 | 355 | 9.7 | 17.7 | 0.00 | 3.45 | 0.00 | 95 | 1016.0 |
| 20260502052907 | 13 | 0 | 9.7 | 24.1 | 0.00 | 3.45 | 0.00 | 95 | 1016.1 |
| 20260502052406 | 13 | 345 | 11.3 | 24.1 | 0.00 | 3.45 | 0.00 | 95 | 1015.9 |
| 20260502051632 | 13 | 0 | 12.9 | 22.5 | 0.00 | 3.45 | 0.00 | 95 | 1015.9 |
| 20260502051134 | 13 | 10 | 11.3 | 22.5 | 0.00 | 3.45 | 0.00 | 95 | 1015.8 |
| 20260502050632 | 13 | 355 | 9.7 | 22.5 | 0.00 | 3.45 | 0.00 | 95 | 1015.8 |
| 20260502050132 | 13 | 343 | 9.7 | 20.9 | 0.00 | 3.45 | 0.00 | 95 | 1015.9 |
| 20260502045632 | 13 | 342 | 9.7 | 20.9 | 0.00 | 3.45 | 3.45 | 96 | 1015.8 |
| 20260502045132 | 13 | 347 | 11.3 | 20.9 | 0.00 | 3.45 | 3.45 | 96 | 1015.7 |
| 20260502044627 | 13 | 355 | 11.3 | 19.3 | 0.00 | 3.45 | 3.45 | 96 | 1015.6 |
| 20260502044121 | 13 | 355 | 9.7 | 20.9 | 0.00 | 3.45 | 3.45 | 96 | 1015.6 |
| 20260502043615 | 13 | 350 | 9.7 | 20.9 | 0.00 | 3.45 | 3.45 | 96 | 1015.6 |
| 20260502043340 | 13 | 355 | 8.0 | 19.3 | 0.00 | 3.45 | 3.45 | 96 | 1015.6 |
| 20260502042602 | 13 | 346 | 6.4 | 17.7 | 0.00 | 3.45 | 3.45 | 96 | 1015.7 |
| 20260502042057 | 13 | 9 | 8.0 | 16.1 | 0.00 | 3.45 | 3.45 | 96 | 1015.8 |
| 20260502041551 | 13 | 0 | 8.0 | 17.7 | 0.00 | 3.45 | 3.45 | 96 | 1015.7 |
| 20260502041045 | 13 | 349 | 6.4 | 17.7 | 0.00 | 3.45 | 3.45 | 96 | 1015.7 |
| 20260502040539 | 13 | 348 | 3.2 | 16.1 | 0.00 | 3.45 | 3.45 | 96 | 1015.6 |
| 20260502040032 | 13 | 10 | 3.2 | 14.5 | 0.00 | 3.45 | 3.45 | 96 | 1015.6 |
| 20260502035758 | 13 | 0 | 3.2 | 20.9 | 0.00 | 3.45 | 3.45 | 96 | 1015.6 |
| 20260502035253 | 13 | 342 | 6.4 | 20.9 | 0.00 | 3.45 | 3.45 | 96 | 1015.6 |
| 20260502034515 | 13 | 304 | 4.8 | 17.7 | 0.00 | 3.45 | 3.45 | 97 | 1015.5 |
| 20260502034008 | 13 | 312 | 3.2 | 16.1 | 0.00 | 3.45 | 3.45 | 96 | 1015.7 |
| 20260502033502 | 13 | 15 | 4.8 | 14.5 | 0.00 | 3.45 | 3.45 | 97 | 1015.7 |
| 20260502032957 | 13 | 320 | 4.8 | 14.5 | 0.00 | 3.45 | 3.45 | 97 | 1015.6 |
| 20260502032451 | 13 | 0 | 3.2 | 14.5 | 0.00 | 3.45 | 3.45 | 97 | 1015.6 |
| 20260502031945 | 13 | 344 | 4.8 | 14.5 | 0.03 | 3.45 | 3.45 | 97 | 1015.4 |
| 20260502031439 | 13 | 350 | 8.0 | 17.7 | 0.03 | 3.45 | 3.45 | 97 | 1015.2 |
| 20260502030933 | 13 | 355 | 9.7 | 24.1 | 0.03 | 3.45 | 3.45 | 96 | 1015.2 |
| 20260502030658 | 13 | 355 | 9.7 | 24.1 | 0.03 | 3.45 | 3.45 | 97 | 1015.1 |
| 20260502025920 | 13 | 336 | 9.7 | 22.5 | 0.03 | 3.45 | 3.45 | 97 | 1015.0 |
| 20260502025415 | 13 | 5 | 11.3 | 22.5 | 0.05 | 3.45 | 3.45 | 97 | 1014.9 |
| 20260502025140 | 13 | 355 | 9.7 | 20.9 | 0.05 | 3.45 | 3.45 | 97 | 1014.6 |
| 20260502024634 | 13 | 0 | 8.0 | 20.9 | 0.08 | 3.45 | 3.45 | 97 | 1014.6 |
| 20260502023856 | 13 | 346 | 8.0 | 16.1 | 0.10 | 3.45 | 3.45 | 97 | 1014.3 |
| 20260502023351 | 13 | 338 | 9.7 | 17.7 | 0.13 | 3.45 | 3.45 | 97 | 1014.0 |
| 20260502022845 | 13 | 345 | 9.7 | 17.7 | 0.15 | 3.45 | 3.45 | 97 | 1014.0 |
| 20260502022338 | 13 | 5 | 9.7 | 17.7 | 0.15 | 3.45 | 3.45 | 97 | 1013.9 |
| 20260502021832 | 13 | 24 | 8.0 | 16.1 | 0.13 | 3.43 | 3.43 | 97 | 1013.6 |
| 20260502021329 | 13 | 345 | 8.0 | 16.1 | 0.13 | 3.43 | 3.43 | 97 | 1013.9 |
| 20260502021323 | 13 | 5 | 9.7 | 19.3 | 0.13 | 3.43 | 3.43 | 97 | 1013.7 |
| 20260502020547 | 13 | 13 | 9.7 | 19.3 | 0.15 | 3.43 | 3.43 | 97 | 1013.5 |
| 20260502015808 | 14 | 355 | 9.7 | 24.1 | 0.18 | 3.43 | 3.43 | 97 | 1013.6 |
| 20260502015305 | 14 | 5 | 9.7 | 24.1 | 0.15 | 3.40 | 3.40 | 97 | 1013.6 |
| 20260502014757 | 14 | 335 | 9.7 | 19.3 | 0.20 | 3.40 | 3.40 | 97 | 1013.5 |
| 20260502014250 | 14 | 0 | 9.7 | 17.7 | 0.25 | 3.38 | 3.38 | 97 | 1013.6 |
| 20260502013745 | 14 | 0 | 9.7 | 19.3 | 0.28 | 3.35 | 3.35 | 97 | 1013.3 |
| 20260502013239 | 14 | 355 | 6.4 | 19.3 | 0.25 | 3.33 | 3.33 | 97 | 1013.4 |
| 20260502012732 | 15 | 5 | 6.4 | 17.7 | 0.23 | 3.30 | 3.30 | 97 | 1013.3 |
| 20260502012227 | 15 | 338 | 6.4 | 17.7 | 0.23 | 3.30 | 3.30 | 97 | 1013.1 |
| 20260502011721 | 15 | 0 | 4.8 | 12.9 | 0.25 | 3.30 | 3.30 | 97 | 1013.2 |
| 20260502011214 | 15 | 351 | 4.8 | 19.3 | 0.28 | 3.30 | 3.30 | 97 | 1013.1 |
| 20260502010709 | 15 | 338 | 4.8 | 19.3 | 0.28 | 3.30 | 3.30 | 97 | 1012.9 |
| 20260502010202 | 15 | 355 | 4.8 | 14.5 | 0.28 | 3.28 | 3.28 | 97 | 1012.9 |
| 20260502005657 | 15 | 263 | 4.8 | 16.1 | 0.28 | 3.25 | 3.25 | 97 | 1012.7 |
| 20260502005152 | 15 | 5 | 6.4 | 17.7 | 0.30 | 3.25 | 3.25 | 97 | 1012.7 |
| 20260502005147 | 15 | 350 | 4.8 | 17.7 | 0.25 | 3.20 | 3.20 | 97 | 1013.0 |
| 20260502004139 | 15 | 5 | 3.2 | 11.3 | 0.18 | 3.10 | 3.12 | 97 | 1013.1 |
| 20260502003905 | 15 | 297 | 4.8 | 14.5 | 0.18 | 3.07 | 3.07 | 97 | 1013.9 |
| 20260502003127 | 15 | 301 | 9.7 | 19.3 | 0.23 | 3.07 | 3.07 | 97 | 1013.2 |
| 20260502002621 | 15 | 331 | 9.7 | 20.9 | 0.28 | 3.07 | 3.07 | 97 | 1012.5 |
| 20260502002115 | 15 | 355 | 8.0 | 20.9 | 0.28 | 3.07 | 3.07 | 97 | 1011.8 |
| 20260502001608 | 15 | 348 | 8.0 | 19.3 | 0.25 | 3.05 | 3.05 | 97 | 1011.9 |
| 20260502001103 | 15 | 5 | 8.0 | 20.9 | 0.23 | 3.02 | 3.02 | 97 | 1011.8 |
| 20260502000557 | 15 | 346 | 9.7 | 20.9 | 0.23 | 3.02 | 3.02 | 97 | 1012.2 |
| 20260502000052 | 15 | 341 | 9.7 | 20.9 | 0.25 | 3.00 | 3.00 | 97 | 1012.3 |
| 20260501235552 | 15 | 333 | 8.0 | 17.7 | 0.28 | 2.97 | 2.97 | 97 | 1012.4 |
| 20260501235052 | 15 | 308 | 8.0 | 17.7 | 0.33 | 2.95 | 2.95 | 97 | 1012.5 |
| 20260501234553 | 15 | 11 | 4.8 | 14.5 | 0.46 | 2.92 | 2.95 | 97 | 1012.3 |
| 20260501234322 | 15 | 332 | 4.8 | 12.9 | 0.51 | 2.90 | 2.92 | 97 | 1012.7 |
| 20260501233552 | 15 | 0 | 4.8 | 14.5 | 0.51 | 2.90 | 2.90 | 97 | 1013.1 |
| 20260501233053 | 15 | 0 | 6.4 | 19.3 | 0.46 | 2.84 | 2.87 | 97 | 1012.7 |
| 20260501232550 | 15 | 0 | 8.0 | 19.3 | 0.41 | 2.79 | 2.82 | 97 | 1012.0 |
| 20260501232050 | 15 | 0 | 8.0 | 19.3 | 0.41 | 2.79 | 2.79 | 97 | 1011.7 |
| 20260501231551 | 15 | 0 | 9.7 | 24.1 | 0.41 | 2.79 | 2.79 | 97 | 1011.1 |
| 20260501231049 | 15 | 0 | 9.7 | 24.1 | 0.41 | 2.79 | 2.79 | 97 | 1010.4 |
| 20260501230823 | 15 | 36 | 9.7 | 20.9 | 0.41 | 2.79 | 2.79 | 97 | 1010.1 |
| 20260501230323 | 16 | 34 | 8.0 | 20.9 | 0.36 | 2.74 | 2.74 | 97 | 1010.3 |
| 20260501225552 | 16 | 30 | 3.2 | 20.9 | 0.30 | 2.69 | 2.69 | 97 | 1010.3 |
| 20260501225051 | 16 | 19 | 3.2 | 12.9 | 0.23 | 2.62 | 2.64 | 97 | 1010.6 |
| 20260501224549 | 16 | 349 | 3.2 | 12.9 | 0.08 | 2.46 | 2.46 | 97 | 1011.0 |
| 20260501224048 | 16 | 0 | 4.8 | 14.5 | 0.00 | 2.39 | 2.39 | 97 | 1012.0 |
| 20260501223548 | 16 | 348 | 8.0 | 22.5 | 0.00 | 2.39 | 2.39 | 97 | 1011.1 |
| 20260501223042 | 16 | 339 | 9.7 | 22.5 | 0.00 | 2.39 | 2.39 | 97 | 1009.6 |
| 20260501222535 | 16 | 60 | 8.0 | 17.7 | 0.00 | 2.39 | 2.39 | 97 | 1009.8 |
| 20260501222030 | 16 | 12 | 11.3 | 20.9 | 0.00 | 2.39 | 2.39 | 97 | 1009.9 |
| 20260501221803 | 16 | 342 | 11.3 | 20.9 | 0.00 | 2.39 | 2.39 | 97 | 1009.8 |
| 20260501221650 | 16 | 9 | 12.9 | 24.1 | 0.03 | 2.39 | 2.39 | 97 | 1009.9 |
| 20260501220759 | 16 | 5 | 12.9 | 24.1 | 0.05 | 2.39 | 2.39 | 97 | 1009.8 |
| 20260501220029 | 16 | 355 | 12.9 | 22.5 | 0.05 | 2.39 | 2.39 | 97 | 1009.9 |
| 20260501215527 | 16 | 342 | 12.9 | 22.5 | 0.08 | 2.39 | 2.39 | 97 | 1010.0 |
| 20260501215028 | 16 | 346 | 12.9 | 25.7 | 0.08 | 2.39 | 2.39 | 97 | 1010.1 |
| 20260501214528 | 16 | 327 | 11.3 | 25.7 | 0.08 | 2.39 | 2.39 | 97 | 1010.4 |
| 20260501214027 | 16 | 342 | 9.7 | 24.1 | 0.10 | 2.39 | 2.39 | 97 | 1010.7 |
| 20260501213528 | 16 | 10 | 8.0 | 22.5 | 0.10 | 2.39 | 2.39 | 97 | 1010.7 |
| 20260501213027 | 17 | 0 | 8.0 | 17.7 | 0.13 | 2.39 | 2.39 | 98 | 1010.5 |
| 20260501212529 | 16 | 10 | 8.0 | 17.7 | 0.13 | 2.39 | 2.39 | 98 | 1010.6 |
| 20260501212023 | 16 | 0 | 6.4 | 14.5 | 0.15 | 2.39 | 2.39 | 98 | 1010.7 |
| 20260501211525 | 16 | 5 | 4.8 | 14.5 | 0.18 | 2.39 | 2.39 | 98 | 1011.1 |
| 20260501211025 | 16 | 5 | 3.2 | 14.5 | 0.15 | 2.36 | 2.36 | 98 | 1010.8 |
| 20260501210524 | 16 | 5 | 3.2 | 12.9 | 0.15 | 2.34 | 2.34 | 98 | 1010.4 |
| 20260501210025 | 16 | 346 | 3.2 | 12.9 | 0.18 | 2.34 | 2.34 | 98 | 1010.5 |
| 20260501205523 | 16 | 339 | 6.4 | 16.1 | 0.18 | 2.31 | 2.31 | 98 | 1010.4 |
| 20260501205025 | 16 | 348 | 8.0 | 19.3 | 0.23 | 2.31 | 2.31 | 98 | 1010.3 |
| 20260501204523 | 16 | 344 | 9.7 | 19.3 | 0.23 | 2.31 | 2.31 | 98 | 1009.5 |
| 20260501204024 | 16 | 334 | 11.3 | 24.1 | 0.23 | 2.29 | 2.29 | 98 | 1009.4 |
| 20260501203525 | 16 | 355 | 9.7 | 24.1 | 0.25 | 2.29 | 2.29 | 98 | 1009.7 |
| 20260501203025 | 17 | 350 | 8.0 | 22.5 | 0.25 | 2.26 | 2.29 | 98 | 1009.8 |
| 20260501202523 | 17 | 17 | 8.0 | 17.7 | 0.30 | 2.26 | 2.26 | 98 | 1009.9 |
| 20260501202029 | 17 | 11 | 8.0 | 17.7 | 0.25 | 2.21 | 2.21 | 98 | 1009.6 |
| 20260501202024 | 17 | 350 | 9.7 | 17.7 | 0.28 | 2.24 | 2.24 | 98 | 1009.7 |
| 20260501201023 | 17 | 27 | 8.0 | 20.9 | 0.25 | 2.21 | 2.21 | 98 | 1009.1 |
| 20260501200523 | 17 | 349 | 8.0 | 20.9 | 0.23 | 2.18 | 2.18 | 98 | 1008.7 |
| 20260501200024 | 17 | 322 | 6.4 | 16.1 | 0.20 | 2.16 | 2.16 | 98 | 1008.9 |
| 20260501195524 | 17 | 348 | 6.4 | 16.1 | 0.18 | 2.13 | 2.13 | 98 | 1008.9 |
| 20260501195029 | 17 | 280 | 4.8 | 12.9 | 0.20 | 2.08 | 2.08 | 98 | 1009.4 |
| 20260501195024 | 17 | 5 | 3.2 | 14.5 | 0.18 | 2.08 | 2.08 | 98 | 1009.1 |
| 20260501194254 | 17 | 331 | 4.8 | 12.9 | 0.23 | 2.06 | 2.06 | 98 | 1009.5 |
| 20260501193523 | 17 | 5 | 4.8 | 8.0 | 0.25 | 2.03 | 2.06 | 98 | 1009.4 |
| 20260501193024 | 17 | 22 | 4.8 | 12.9 | 0.23 | 2.01 | 2.01 | 98 | 1009.3 |
| 20260501192524 | 17 | 350 | 4.8 | 12.9 | 0.20 | 1.96 | 1.96 | 98 | 1009.4 |
| 20260501192023 | 17 | 20 | 6.4 | 14.5 | 0.25 | 1.96 | 1.96 | 98 | 1009.2 |
| 20260501191526 | 17 | 351 | 6.4 | 14.5 | 0.30 | 1.96 | 1.96 | 98 | 1009.1 |
| 20260501191521 | 17 | 23 | 6.4 | 14.5 | 0.46 | 1.96 | 1.96 | 98 | 1009.2 |
| 20260501190521 | 17 | 22 | 6.4 | 14.5 | 0.64 | 1.96 | 1.96 | 98 | 1009.3 |
| 20260501190019 | 17 | 344 | 6.4 | 12.9 | 0.69 | 1.96 | 1.96 | 98 | 1009.6 |
| 20260501185516 | 17 | 33 | 4.8 | 12.9 | 0.84 | 1.96 | 1.96 | 98 | 1009.3 |
| 20260501185013 | 17 | 30 | 4.8 | 12.9 | 0.81 | 1.91 | 1.91 | 98 | 1009.8 |
| 20260501184513 | 17 | 26 | 4.8 | 12.9 | 0.79 | 1.88 | 1.88 | 98 | 1009.9 |
| 20260501184011 | 17 | 0 | 6.4 | 12.9 | 0.74 | 1.80 | 1.83 | 98 | 1009.8 |
| 20260501183511 | 17 | 44 | 4.8 | 12.9 | 0.79 | 1.78 | 1.78 | 98 | 1009.2 |
| 20260501183013 | 17 | 29 | 6.4 | 16.1 | 0.81 | 1.78 | 1.78 | 98 | 1010.0 |
| 20260501182512 | 17 | 37 | 11.3 | 20.9 | 0.79 | 1.75 | 1.75 | 98 | 1009.4 |
| 20260501182013 | 16 | 23 | 12.9 | 22.5 | 0.74 | 1.70 | 1.73 | 98 | 1008.3 |
| 20260501181511 | 17 | 32 | 11.3 | 22.5 | 0.71 | 1.65 | 1.65 | 98 | 1008.2 |
| 20260501181011 | 17 | 76 | 8.0 | 19.3 | 0.56 | 1.50 | 1.50 | 98 | 1008.5 |
| 20260501180511 | 17 | 55 | 8.0 | 16.1 | 0.36 | 1.30 | 1.32 | 98 | 1009.2 |
| 20260501180012 | 17 | 39 | 8.0 | 17.7 | 0.33 | 1.27 | 1.27 | 98 | 1008.7 |
| 20260501175506 | 17 | 78 | 8.0 | 17.7 | 0.18 | 1.12 | 1.14 | 98 | 1008.8 |
| 20260501175000 | 16 | 27 | 9.7 | 20.9 | 0.15 | 1.09 | 1.09 | 98 | 1008.8 |
| 20260501174453 | 17 | 41 | 9.7 | 20.9 | 0.15 | 1.09 | 1.09 | 98 | 1009.0 |
| 20260501173948 | 17 | 349 | 9.7 | 19.3 | 0.10 | 1.04 | 1.07 | 98 | 1009.1 |
| 20260501173442 | 17 | 355 | 8.0 | 19.3 | 0.05 | 0.99 | 0.99 | 98 | 1009.4 |